User: anonymous   Login
Location: Tamazert
(32.6352°N, 5.2072°W)
Time: 03:52:16
(UTC+00:00)
Language:

Courier 1B Rocket - Orbit

View from above orbital plane
View from above orbital plane
View from above satellite
View from above satellite

Ground track
Ground track

The orbit data is extracted from the following two-line orbital elements,

1 00059U 60013B   24060.53254388  .00000120  00000-0  44154-4 0  9999
2 00059  28.2470 112.5656 0189170 115.0316 246.9995 13.53059727129499
Epoch (UTC): 29 February 2024 12:46:51
Eccentricity: 0.0189170
inclination: 28.2470°
perigee height: 920 km
apogee height: 1202 km
right ascension of ascending node: 112.5656°
argument of perigee: 115.0316°
revolutions per day: 13.53059727
mean anomaly at epoch: 246.9995°
orbit number at epoch: 12949

The dashed part of the orbit path shows where the satellite is in the earth's shadow,  

DLR